User: anonymous   Login
Location: Unspecified
(0.0000°N, 0.0000°E)
Time: 07:08:15
(UTC+00:00)
Language:

INTEGRAL - Orbit

View from above orbital plane
View from above orbital plane
View from above satellite
View from above satellite

Ground track
Ground track

The orbit data is extracted from the following two-line orbital elements,

1 27540U 02048A   22027.47825595  .00000302  00000-0  00000+0 0  9994
2 27540  71.1087  68.5820 8953260 299.7145 149.2569  0.37582090 20612
Epoch (UTC): 27 January 2022 11:28:41
Eccentricity: 0.8953260
inclination: 71.1087°
perigee height: 2112 km
apogee height: 147352 km
right ascension of ascending node: 68.5820°
argument of perigee: 299.7145°
revolutions per day: 0.37582090
mean anomaly at epoch: 149.2569°
orbit number at epoch: 2061

The dashed part of the orbit path shows where the satellite is in the earth's shadow,  

DLR